• In Czech Republic
  • List of Countries
  • For 7 days
  • Water Temperature
  • Satellite Maps
  • Weather Map
  • Weather Widgets
  • user-avatar
    Login

    Hourly Weather Gorodenka

    Today, 23 June, Saturday

    Time Temperature Precipitation Wind Pressure Humidity
    00:00 +12°C° 0.9 mm 4 mps 736 mmHg 98%
    01:00 +12°C° 0.6 mm 3 mps 736 mmHg 100%
    02:00 +11°C° 3.2 mm 4 mps 736 mmHg 99%
    03:00 +10°C° 0.9 mm 5 mps 736 mmHg 99%
    04:00 +11°C° 0.1 mm 4 mps 735 mmHg 98%
    05:00 +10°C° 0 mm 4 mps 735 mmHg 98%
    06:00 +10°C° 0 mm 4 mps 735 mmHg 98%
    07:00 +11°C° 0 mm 3 mps 736 mmHg 98%
    08:00 +11°C° 0 mm 4 mps 736 mmHg 97%
    09:00 +12°C° 0 mm 5 mps 736 mmHg 93%
    10:00 +13°C° 0.3 mm 5 mps 736 mmHg 92%
    11:00 +14°C° 0 mm 4 mps 735 mmHg 88%
    12:00 +15°C° 0 mm 4 mps 735 mmHg 86%
    13:00 +15°C° 0.6 mm 4 mps 735 mmHg 84%
    14:00 +14°C° 1.2 mm 7 mps 735 mmHg 93%
    15:00 +14°C° 0.6 mm 4 mps 735 mmHg 88%
    16:00 +16°C° 0 mm 5 mps 735 mmHg 85%
    17:00 +15°C° 0 mm 4 mps 735 mmHg 86%
    18:00 +17°C° 0 mm 4 mps 734 mmHg 83%
    19:00 +15°C° 0 mm 4 mps 734 mmHg 90%
    20:00 +14°C° 0 mm 6 mps 735 mmHg 93%
    21:00 +13°C° 0 mm 4 mps 735 mmHg 93%
    22:00 +13°C° 0 mm 3 mps 735 mmHg 94%
    23:00 +12°C° 0 mm 3 mps 735 mmHg 95%

    Tomorrow, 24 June, Sunday

    Time Temperature Precipitation Wind Pressure Humidity
    00:00 +11°C° 0 mm 3 mps 736 mmHg 97%
    01:00 +12°C° 0 mm 2 mps 736 mmHg 98%
    02:00 +12°C° 0 mm 2 mps 736 mmHg 97%
    03:00 +10°C° 0 mm 2 mps 736 mmHg 99%
    04:00 +10°C° 0 mm 2 mps 736 mmHg 98%
    05:00 +10°C° 0 mm 2 mps 736 mmHg 97%
    06:00 +12°C° 0 mm 2 mps 736 mmHg 96%
    07:00 +13°C° 0 mm 3 mps 737 mmHg 93%
    08:00 +14°C° 0 mm 5 mps 737 mmHg 89%
    09:00 +14°C° 0 mm 5 mps 737 mmHg 91%
    10:00 +15°C° 0 mm 5 mps 738 mmHg 90%
    11:00 +15°C° 0 mm 4 mps 738 mmHg 88%
    12:00 +17°C° 0 mm 3 mps 738 mmHg 88%
    13:00 +18°C° 0 mm 3 mps 738 mmHg 83%
    14:00 +18°C° 0 mm 4 mps 737 mmHg 84%
    15:00 +19°C° 0.1 mm 2 mps 737 mmHg 78%
    16:00 +19°C° 0 mm 2 mps 737 mmHg 75%
    17:00 +17°C° 0.5 mm 4 mps 737 mmHg 89%
    18:00 +17°C° 0 mm 2 mps 737 mmHg 88%
    19:00 +17°C° 0 mm 3 mps 737 mmHg 92%
    20:00 +17°C° 0 mm 2 mps 738 mmHg 96%
    21:00 +16°C° 0 mm 2 mps 738 mmHg 96%
    22:00 +15°C° 0 mm 2 mps 737 mmHg 97%
    23:00 +14°C° 0 mm 1 mps 738 mmHg 98%

    Day after tomorrow, 25 June, Monday

    Time Temperature Precipitation Wind Pressure Humidity
    00:00 +14°C° 0 mm 2 mps 738 mmHg 95%
    01:00 +14°C° 0 mm 1 mps 738 mmHg 88%
    02:00 +14°C° 0 mm 1 mps 738 mmHg 88%
    03:00 +13°C° 0 mm 0 mps 738 mmHg 86%
    04:00 +13°C° 0 mm 0 mps 738 mmHg 86%
    05:00 +12°C° 0 mm 0 mps 738 mmHg 87%
    06:00 +12°C° 0 mm 0 mps 738 mmHg 90%
    07:00 +13°C° 0 mm 0 mps 739 mmHg 95%
    08:00 +15°C° 0 mm 0 mps 739 mmHg 93%
    09:00 +16°C° 0 mm 0 mps 739 mmHg 90%
    10:00 +20°C° 0 mm 1 mps 740 mmHg 84%
    11:00 +20°C° 0 mm 1 mps 740 mmHg 78%
    12:00 +21°C° 0 mm 1 mps 739 mmHg 73%
    13:00 +21°C° 0 mm 2 mps 739 mmHg 72%
    14:00 +21°C° 0 mm 2 mps 739 mmHg 74%
    15:00 +22°C° 0 mm 1 mps 739 mmHg 75%
    16:00 +21°C° 0 mm 2 mps 739 mmHg 77%
    17:00 +18°C° 1.3 mm 3 mps 740 mmHg 92%
    18:00 +18°C° 0.6 mm 2 mps 739 mmHg 89%
    19:00 +18°C° 0 mm 2 mps 739 mmHg 90%
    20:00 +17°C° 0 mm 0 mps 740 mmHg 95%
    21:00 +17°C° 0 mm 0 mps 740 mmHg 94%
    22:00 +18°C° 0 mm 1 mps 740 mmHg 92%
    23:00 +18°C° 0 mm 1 mps 740 mmHg 91%

    26 June, Tuesday

    Time Temperature Precipitation Wind Pressure Humidity
    00:00 +16°C° 0 mm 1 mps 740 mmHg 90%
    01:00 +16°C° 0 mm 1 mps 740 mmHg 96%
    02:00 +15°C° 0 mm 1 mps 741 mmHg 98%
    03:00 +15°C° 0 mm 1 mps 740 mmHg 98%
    04:00 +15°C° 0 mm 1 mps 740 mmHg 100%
    05:00 +14°C° 0 mm 2 mps 741 mmHg 100%
    06:00 +14°C° 0 mm 2 mps 740 mmHg 100%
    07:00 +15°C° 0 mm 1 mps 741 mmHg 100%
    08:00 +15°C° 0 mm 1 mps 741 mmHg 100%
    09:00 +16°C° 0 mm 2 mps 741 mmHg 98%
    10:00 +19°C° 0 mm 1 mps 742 mmHg 97%
    11:00 +20°C° 0 mm 1 mps 742 mmHg 93%
    12:00 +20°C° 0 mm 3 mps 742 mmHg 87%
    13:00 +20°C° 0 mm 3 mps 741 mmHg 83%
    14:00 +21°C° 0 mm 4 mps 741 mmHg 81%

    27 June, Wednesday

    Time Temperature Precipitation Wind Pressure Humidity

    28 June, Thursday

    Time Temperature Precipitation Wind Pressure Humidity
    Show more